Location: La Fredeussais
(48.1780°N, 1.3980°W)
Time: 08:16:01
(UTC+00:00)

STARLINK-2688 - Pass Details

Date: 30 July 2021
Orbit: 546 x 548 km, 53.1° (Epoch: 19 September)

Event Time Altitude Azimuth Distance (km) Brightness Sun altitude
Rises 20:21:56 0° 295° (WNW) 2,719 9.3 -6.1°
Reaches altitude 10° 20:24:15 10° 288° (WNW) 1,822 7.7 -6.4°
Maximum altitude 20:28:08 40° 218° (SW) 814 4.5 -6.9°
Drops below altitude 10° 20:32:00 10° 149° (SSE) 1,812 5.7 -7.4°
Enters shadow 20:32:22 - 147° (SSE) 1,949 5.8 -7.5°
